Location: Berg
(48.4333°N, 13.9167°E)
Time: 08:48:35
(UTC+00:00)

Cosmos 372 Rocket - Pass Details

Date: 18 September 2020
Orbit: 739 x 767 km, 74.1° (Epoch: 24 October)

Event Time Altitude Azimuth Distance (km) Brightness Sun altitude
Rises 18:43:43 0° 198° (SSW) 3,223 7.2 -16.0°
Reaches altitude 10° 18:46:05 10° 197° (SSW) 2,300 6.4 -16.4°
Maximum altitude 18:51:19 82° 111° (ESE) 779 3.9 -17.2°
Drops below altitude 10° 18:56:33 10° 25° (NNE) 2,305 6.5 -18.0°
Sets 18:58:56 0° 24° (NNE) 3,231 7.3 -18.3°
